Regional Weather Roundup
Issued by NWS Boston, MA

Current Version | Previous Version | Graphics & Text | Print | Product List | Glossary Off
Versions: 1 2 3 4 5 6 7 8 9 10 11 12 13 14 15 16 17 18 19 20 21 22 23 24 25 26 27
000 ASUS41 KBOX 210010 RWRBOX REGIONAL WEATHER ROUNDUP NATIONAL WEATHER SERVICE TAUNTON MA 800 PM EDT SUN AUG 20 2017 NOTE: "FAIR" INDICATES FEW OR NO CLOUDS BELOW 12,000 FEET WITH NO SIGNIFICANT WEATHER AND/OR OBSTRUCTIONS TO VISIBILITY. MAZALL-210100- EASTERN MASSACHUSETTS CITY SKY/WX TMP DP RH WIND PRES REMARKS BOSTON PTCLDY 79 54 41 NW8 30.03R 6HR MIN TEMP: 79; 6HR MAX TEMP: 84; BEVERLY CLEAR 71 57 61 NW3 30.02R LAWRENCE CLEAR 75 56 51 CALM 30.05R BEDFORD CLEAR 69 57 65 CALM 30.03R BLUE HILL N/A 73 53 49 NW8 30.06R NORWOOD CLEAR 74 58 57 NW3 30.04R MARSHFIELD CLEAR 75 59 57 CALM 30.03R PLYMOUTH CLEAR 75 54 47 NW5 30.04R TAUNTON CLEAR 67 60 78 CALM 30.03R NEW BEDFORD CLEAR 72 59 63 CALM 30.03R $$ MAZALL-210100- CAPE COD AND THE ISLANDS CITY SKY/WX TMP DP RH WIND PRES REMARKS FALMOUTH CLEAR 72 64 78 CALM 30.05R HYANNIS CLEAR 73 62 68 N5 30.03R CHATHAM CLEAR 73 65 75 CALM 30.04R PROVINCETOWN CLEAR 70 64 81 N5 30.04R NANTUCKET CLEAR 71 66 84 W8 30.03R MARTHAS VNYRD CLEAR 70 63 78 W5 30.03R $$ MAZALL-210100- CENTRAL AND WESTERN MASSACHUSETTS CITY SKY/WX TMP DP RH WIND PRES REMARKS WORCESTER CLEAR 68 55 63 W6 30.09R 6HR MIN TEMP: 68; 6HR MAX TEMP: 80; FITCHBURG CLEAR 74 58 57 CALM 30.06R ORANGE CLEAR 71 61 70 W3 30.07R SPRINGFIELD CLEAR 73 58 60 W5 30.06R WESTFIELD CLEAR 74 59 59 W8 30.07R NORTH ADAMS CLEAR 67 62 84 CALM 30.09R PITTSFIELD CLEAR 66 58 75 W8 30.10R $$ RIZALL-210100- RHODE ISLAND CITY SKY/WX TMP DP RH WIND PRES REMARKS PROVIDENCE PTCLDY 77 59 53 NW6 30.05R 6HR MIN TEMP: 77; 6HR MAX TEMP: 85; NEWPORT CLEAR 73 63 70 CALM 30.05R BLOCK ISLAND CLEAR 71 64 78 W7 30.07R WESTERLY CLEAR 75 61 61 CALM 30.07R $$ CTZALL-210100- CONNECTICUT CITY SKY/WX TMP DP RH WIND PRES REMARKS BRADLEY INTL PTCLDY 74 58 57 CALM 30.07R 6HR MIN TEMP: 74; 6HR MAX TEMP: 84; HARTFORD CLEAR 78 57 48 W7 30.07R BRIDGEPORT CLEAR 78 59 51 W6 30.08R DANBURY CLEAR 72 63 73 CALM 30.11R GROTON CLEAR 76 59 55 W6 30.06R NEW HAVEN CLEAR 78 61 55 NW3 30.08R CHESTER FAIR 73 59 60 CALM 30.09R MERIDEN CLEAR 73 58 59 NW5 30.08R WILLIMANTIC CLEAR 73 62 68 CALM 30.07R OXFORD CLEAR 71 60 68 N3 30.11R $$ MEZ002-015-021-024-NHZ003-005-008-011-012-014-VTZ005-008-210100- NORTHERN NEW ENGLAND CITY SKY/WX TMP DP RH WIND PRES REMARKS PORTLAND ME CLEAR 74 54 49 W5 30.01R 6HR MIN TEMP: 73; 6HR MAX TEMP: 83; BANGOR ME PTCLDY 71 55 56 W3 29.96R CONCORD NH CLEAR 72 57 59 NW3 30.04R MANCHESTER NH PTCLDY 76 55 48 W5 30.03R NASHUA NH CLEAR 70 61 73 CALM 30.05R PORTSMOUTH NH CLEAR 72 56 56 W5 30.01S JAFFREY NH CLEAR 66 63 90 CALM 30.09R KEENE NH N/A N/A N/A N/A MISG N/A BURLINGTON VT PTCLDY 75 59 57 SW3 30.03R MT. WASHINGTON FOG 46 46 100 W46 N/A VSB 1/16 $$ NYZ052-076-210100- EASTERN NEW YORK CITY SKY/WX TMP DP RH WIND PRES REMARKS ALBANY PTCLDY 73 58 59 W6 30.07R 6HR MIN TEMP: 73; 6HR MAX TEMP: 81; NEW YORK CITY PTCLDY 80 62 54 NW9 30.09R 6HR MIN TEMP: 80; 6HR MAX TEMP: 83; $$ ANZALL-210100- MARINE OBSERVATIONS STATION/POSITION TIME TEMP WIND PRES VSBY WAVE AIR SEA DIR/SP/G HT/PER (UTC) (F) (DEG/KT/KT) (MB) (MI) (FT/S) BOSTON BUOY 2250 73 67 330/ 10/ 12 1015.6 1/ 6 BUZZARDS BAY 2300 75 260/ 12/ 12 1017.0R NANTUCKET SOUND 2250 74 72 240/ 6/ 8 1016.2 1/ 3 MASS BAY-STELLWA 2304 72 67 330/ 10/ 10 1015.6R 2/ 6 ISLE OF SHOALS 2300 77 300/ 14/ 14 1015.7R S OF BLOCK IS NOT AVBL $$ ......................KEY......................... SKY/WX - SKY CONDITION/PRESENT WEATHER TMP - TEMPERATURE IN FAHRENHEIT DWPT - DEWPOINT IN FAHRENHEIT RH - RELATIVE HUMIDITY IN PERCENT WIND - DIRECTION AND SPEED IN MPH PRES - MEAN SEA LEVEL PRESSURE IN INCHES OF HG WCI - WIND CHILL INDEX VSB - VISIBILITY IN MILES HX - HEAT INDEX TC - TEMPERATURE IN CELSIUS VRB - VARIABLE WIND DIRECTION N/A - NOT AVAILABLE

USA.gov is the U.S. government's official web portal to all federal, state and local government web resources and services.